Погода в Ольшанах

Россия / Московская область     55°03′30″N   39°23′03″E
темп.,
°C
ветер,
м/с
пор.,
м/с
влажн.,
%
обл.,
%
осадки,
мм/ч
давл.,
гПа
погр.,
м
17 мая, вт
вт1700:00+5з41192100 0.0 1005366
03:00+5з41092100 0.0 1004515
06:00+5з61197100 1.3 1002982
09:00+6зсз51197100 2.6 1001653
12:00+7зсз51096100 1.6 1002683
15:00+10сз468865 1.9 1002677
18:00+9сз41096100 2.4 1002588
21:00+8сз389762 3.8 1003360
18 мая, ср
ср1800:00+8ссв499884 0.3 1004383
03:00+7с4997100 0.6 1005516
06:00+7с4896100 0.5 1007662
09:00+9с578558 0.6 1009845
12:00+13с565032 0.0 10101753
15:00+14с57429 0.0 10112170
18:00+12с4858100 0.0 1012943
21:00+9ссз4974100 0.0 1014742
19 мая, чт
чт1900:00+5сз38915 0.0 1015234
03:00+3зсз279225 0.0 1016151
06:00+6зюз31178100 0.0 1014387
09:00+10сз5867100 0.1 10141319
12:00+10сз5873100 0.9 10141439
15:00+11сз586479 1.9 10151383
18:00+11ссз47555 0.3 10151380
21:00+5с23785 0.3 101742
20 мая, пт
пт2000:00+3ссз22865 0.0 101820
03:00+2сз23885 0.0 101957
06:00+4ссз2577100 0.0 1019174
09:00+9ссз355678 0.0 10191004
12:00+12сз354698 0.0 10182013
15:00+13зсз3443100 0.0 10172005
18:00+12зюз2360100 0.0 1016517
21:00+7ююв1173100 0.0 101511
21 мая, сб
сб2100:00+6юв2478100 0.0 101477
03:00+6юв2682100 0.0 1012168
06:00+7вюв248653 0.0 1010135
09:00+10вюв2374100 0.1 1009856
12:00+14вюв455396 0.3 10081954
15:00+13в346161 0.6 10081301
18:00+12в246551 0.3 1008785
21:00+7в2284100 0.3 100813